Showing default

KOREASAT 5A, 42984

Orbit data source: Space-Track

KOREASAT 5A, 42984 is a payload satellite owned by KT Sat (KR) in GEO that was launched on Mon, 30 Oct 2017 UTC via an FALCON 9 launch vehicle from the Air Force Eastern Test Range (AFETR). Payload-class satellites include a variety of spacecraft equipped with specific instruments for various scientific and technological missions. These include communications satellites like Starlink; space stations such as the ISS; scientific satellites like the Hubble; Earth observation satellites from companies like Planet Labs, Umbra, and HawkEye 360; GPS; miniature CubeSats for education and research; and military/defense satellites.

Not visible in the next 10 days
Identifier
42984, 2017-067A
Orbit
GEO
Country
Flag of KRKR / SKOR
Related business
Manufacturer
Thales Alenia
Mission
Operational Commercial Communications
Bus & Motor
SPACEBUS 4000B2, S400
Mass
~3,700 kg wet, ~2,000 kg dry
Launch date (UTC)
2017-10-30 (9 years ago)
Launch vehicle
FALCON 9
Launch site
Air Force Eastern Test Range (AFETR)
Object type
Payload
Rocket body
Debris
Shape & HBR
Box + 2 Pan, 19.0 m
Radar Cross Section
39.423 m², Large (>1 m²)

Expand to show TLE details & history
Last TLE update: 14 hours ago

TLE from 14 hours ago
0 KOREASAT 5A
1 42984U 17067A   26265.43814427 -.00000361  00000-0  00000-0 0  9993
2 42984   0.0377 275.0245 0000919 290.3644  66.8144  1.00271074 32509
Epoch: 2026-09-22T10:30Z
TLE epoch observation values (Epoch: 2026-09-22T10:30:55.664Z)
Latitude
0.02005°
Longitude
113.16313°
Altitude
35,784.767 km
Speed
3.075 km/s
True Right ascension
18h 08m 47s
True Declination
0° 01' 12"
Sunlit
Object was in daylight at epoch
Visualization orbit readout
Latitude
Unknown
Longitude
Unknown
Altitude
Unknown
Speed
Unknown
Apparent Right ascension
Unknown
Apparent Declination
Unknown
Sunlit
N/A
Visualization observer readout
Local Sidereal Time
17:32:13
Azimuth
Unknown
Elevation
Unknown
Doppler factor
Unknown
Orbital elements
Apogee altitude
35,791.74 km
Perigee altitude
35,783.99 km
Semi-major axis
42,166.002 km
Eccentricity
0.00009
Inclination
0.0377°
RAAN
275.0245°
Arg. of periapsis
290.3644°
True anomaly
66.82408°
Mean anomaly
66.8144°
Eccentric anomaly
66.81924°
Mean motion
0.25067 °/min
Orbital period
1,436.16 mins
BSTAR
0
Loading maneuver chart data...
Computing Atmospheric mass density...
Loading historical data...
Loading historical data...
Loading historical data...
Loading historical data...
Loading historical data...
Loading historical data...
Loading historical data...
Other satellites on launch #67 in the year 2017 (2017-10-30 UTC)

Documentation

Showing up to 5 results
|